Home > Weather > Zwickau > Past weeks

Flag for Germany Weather for the Past 2 Weeks in Zwickau, Saxony, Germany

Now
37 °F

Fog.


Feels Like: 33 °F
Forecast: 39 / 51 °F
Wind: 6 mph from West

Location: Karlovy Vary Airport

Current Time: Feb 5, 2016 at 11:59:58 PM

Latest Report: Feb 5, 2016 at 11:00 PM


Visibility: 2 mi

Pressure: 30.18 "Hg

Humidity: 100%

Dew point: 37 °F

Location of ZwickauLocation

Historic Weather in Zwickau — Graph

°F

Zwickau Temperature Yesterday

Maximum temperature yesterday: 34 °F (at 11:30 AM)
Minimum temperature yesterday: 30 °F (at 1:00 AM)
Average temperature yesterday: 32 °F

High & Low Weather Summary for the Past Weeks

 TemperatureHumidityPressure
High50 °F (Jan 27, 1:00 PM)100% (Jan 23, 1:30 PM)30.51 "Hg (Jan 23, 1:30 PM)
Low3 °F (Jan 22, 2:00 AM)46% (Jan 29, 2:30 PM)29.71 "Hg (Jan 30, 8:00 PM)
Average36 °F85%30.15 "Hg
* Reported Jan 21 10:00 PM — Feb 5 10:00 PM, Zwickau, Weather by CustomWeather, © 2016

Note: Actual official high and low records may vary slightly from our data, if they occured in-between our weather recording intervals... More about our weather records

Advertising

Zwickau Weather History for the Previous 24 Hours

 ConditionsComfort  
Time TempWeatherWind HumidityBarometerVisibility
10:00 PM
Fri, Feb 5
37 °FFog.6 mph93%30.21 "Hg2 mi
9:00 PM37 °FFog.7 mph93%30.21 "Hg3 mi
8:00 PM36 °FLight rain. Low clouds.7 mph100%30.21 "Hg4 mi
7:30 PM36 °FLight rain. Mostly cloudy.5 mph93%30.21 "Hg4 mi
7:00 PM36 °FLight rain. Mostly cloudy.3 mph93%30.21 "Hg4 mi
6:30 PM36 °FLight rain. Low clouds.3 mph93%30.21 "Hg5 mi
6:00 PM34 °FLight rain. Low clouds.2 mph93%30.21 "HgN/A
5:30 PM34 °FDrizzle. Low clouds.3 mph93%30.21 "HgN/A
5:00 PM34 °FDrizzle. Low clouds.3 mph93%30.21 "HgN/A
4:30 PM34 °FDrizzle. More clouds than sun.5 mph93%30.21 "HgN/A
4:00 PM34 °FMore clouds than sun.5 mph93%30.21 "HgN/A
3:30 PM34 °FMore clouds than sun.6 mph93%30.21 "HgN/A
3:00 PM34 °FMore clouds than sun.6 mph87%30.21 "HgN/A
2:30 PM34 °FOvercast.7 mph87%30.21 "HgN/A
2:00 PM34 °FPartly sunny.7 mph81%30.24 "HgN/A
1:30 PM34 °FPartly sunny.8 mph81%30.24 "HgN/A
1:00 PM34 °FPartly sunny.8 mph81%30.24 "HgN/A
12:30 PM34 °FPartly sunny.6 mph81%30.27 "HgN/A
12:00 PM34 °FScattered clouds.8 mph81%30.27 "HgN/A
11:30 AM32 °FBroken clouds.7 mph87%30.27 "HgN/A
11:00 AM32 °FScattered clouds.9 mph87%30.27 "HgN/A
10:30 AM32 °FPartly sunny.10 mph87%30.27 "HgN/A
10:00 AM32 °FBroken clouds.8 mph93%30.27 "HgN/A
9:30 AM32 °FScattered clouds.7 mph87%30.27 "HgN/A
9:00 AM32 °FBroken clouds.7 mph93%30.27 "HgN/A
8:30 AM32 °FScattered clouds.8 mph93%30.27 "HgN/A
8:00 AM30 °FLight snow. Partly sunny.8 mph93%30.27 "HgN/A
7:30 AM30 °FPartly cloudy.6 mph93%30.24 "HgN/A
7:00 AM30 °FLight snow. Passing clouds.9 mph100%30.24 "Hg1 mi
6:00 AM30 °FLow clouds.7 mph93%30.21 "HgN/A
5:00 AM30 °FMostly cloudy.7 mph100%30.21 "HgN/A
4:00 AM32 °FLight snow. Low clouds.9 mph93%30.18 "Hg2 mi
3:00 AM32 °FPassing clouds.10 mph87%30.18 "HgN/A
2:00 AM32 °FLight snow. Passing clouds.8 mph93%30.15 "HgN/A
1:00 AM32 °FOvercast.13 mph93%30.12 "HgN/A
12:00 AM32 °FPassing clouds.13 mph93%30.09 "HgN/A
11:00 PM
Thu, Feb 4
32 °FLight snow. Passing clouds.9 mph93%30.07 "HgN/A
Weather by CustomWeather, © 2016

See weather overviewHow to use our weather pages